Location: Unspecified
(43.4354°N, 0.0000°E)
Time: 03:56:53
(UTC+00:00)

Tiros 1 despin weight - Pass Details

Date: 27 June 2019
Orbit: 594 x 642 km, 48.2° (Epoch: 17 July)

Event Time Altitude Azimuth Distance (km) Brightness Sun altitude
Rises 20:18:07 0° 215° (SW) 2,875 ? -5.6°
Reaches altitude 10° 20:20:36 10° 205° (SSW) 1,965 ? -6.0°
Maximum altitude 20:24:37 33° 142° (SE) 1,036 ? -6.5°
Drops below altitude 10° 20:28:37 10° 79° (ENE) 1,948 ? -7.1°
Sets 20:31:04 0° 69° (ENE) 2,847 ? -7.4°
